GEFSMW_prec_meanprecacc_012.txt.gz
Total_Precipitation_Accumulation
0.00 0.00 0.00 0.00 0.00 0.00 0.00 0.00 0.02 0.08 0.15 0.18 0.19 0.27 0.35 0.34 0.35 0.38 0.31 0.23 0.14 0.16 0.12 0.04 0.02 0.03 0.05 0.12 0.18 0.23 0.27 0.14 0.02 0.02 0.03 0.01 0.00 0.00 0.00 0.00 0.00 0.00 0.00
0.00 0.00 0.00 0.00 0.00 0.00 0.00 0.00 0.00 0.02 0.02 0.05 0.10 0.17 0.27 0.25 0.25 0.32 0.37 0.39 0.25 0.16 0.12 0.09 0.06 0.05 0.08 0.15 0.19 0.24 0.33 0.21 0.05 0.06 0.17 0.10 0.03 0.00 0.00 0.00 0.00 0.00 0.00
0.00 0.00 0.00 0.00 0.00 0.00 0.00 0.00 0.00 0.01 0.03 0.05 0.07 0.09 0.14 0.14 0.20 0.25 0.32 0.39 0.39 0.35 0.28 0.18 0.14 0.11 0.07 0.12 0.17 0.22 0.35 0.22 0.06 0.03 0.11 0.18 0.15 0.03 0.00 0.00 0.00 0.00 0.00
0.00 0.00 0.00 0.00 0.00 0.00 0.00 0.00 0.00 0.01 0.03 0.07 0.10 0.10 0.13 0.19 0.20 0.21 0.21 0.21 0.29 0.38 0.39 0.26 0.19 0.17 0.11 0.12 0.15 0.18 0.29 0.32 0.19 0.07 0.03 0.04 0.06 0.04 0.04 0.01 0.00 0.00 0.00
0.00 0.00 0.00 0.00 0.00 0.00 0.00 0.00 0.00 0.01 0.02 0.06 0.09 0.11 0.13 0.16 0.14 0.11 0.11 0.14 0.18 0.17 0.18 0.17 0.16 0.17 0.15 0.13 0.15 0.21 0.34 0.33 0.29 0.16 0.08 0.04 0.03 0.01 0.04 0.06 0.02 0.00 0.00
0.00 0.00 0.00 0.00 0.00 0.00 0.00 0.00 0.00 0.00 0.01 0.03 0.05 0.07 0.09 0.09 0.08 0.08 0.10 0.13 0.14 0.12 0.10 0.11 0.16 0.22 0.22 0.20 0.20 0.25 0.36 0.35 0.34 0.23 0.11 0.08 0.05 0.01 0.01 0.04 0.06 0.03 0.00
0.00 0.00 0.00 0.00 0.00 0.00 0.00 0.00 0.00 0.00 0.01 0.01 0.03 0.03 0.02 0.01 0.02 0.03 0.04 0.06 0.07 0.08 0.09 0.13 0.20 0.30 0.34 0.32 0.30 0.35 0.38 0.35 0.39 0.29 0.16 0.08 0.03 0.01 0.00 0.01 0.02 0.05 0.02
0.00 0.00 0.00 0.00 0.00 0.00 0.00 0.00 0.00 0.00 0.00 0.00 0.01 0.00 0.00 0.00 0.00 0.01 0.03 0.04 0.05 0.06 0.07 0.12 0.21 0.38 0.53 0.52 0.42 0.37 0.37 0.32 0.38 0.31 0.22 0.20 0.08 0.02 0.00 0.01 0.05 0.12 0.13
0.00 0.00 0.00 0.00 0.00 0.00 0.00 0.00 0.00 0.00 0.00 0.00 0.00 0.00 0.00 0.00 0.00 0.00 0.03 0.06 0.05 0.04 0.05 0.08 0.15 0.25 0.44 0.58 0.56 0.42 0.34 0.29 0.34 0.31 0.26 0.30 0.21 0.05 0.01 0.00 0.03 0.13 0.20
0.08 0.05 0.03 0.01 0.00 0.00 0.00 0.00 0.00 0.00 0.00 0.00 0.00 0.00 0.00 0.00 0.00 0.00 0.01 0.02 0.03 0.03 0.04 0.05 0.08 0.16 0.29 0.46 0.57 0.55 0.44 0.33 0.30 0.34 0.35 0.40 0.33 0.17 0.06 0.02 0.01 0.02 0.13
0.08 0.07 0.08 0.05 0.01 0.00 0.00 0.00 0.00 0.00 0.00 0.00 0.00 0.00 0.00 0.00 0.00 0.00 0.01 0.01 0.02 0.03 0.03 0.06 0.06 0.12 0.19 0.33 0.54 0.65 0.60 0.47 0.39 0.35 0.39 0.44 0.39 0.33 0.20 0.11 0.09 0.07 0.10
0.01 0.02 0.02 0.02 0.01 0.00 0.00 0.00 0.00 0.00 0.00 0.00 0.00 0.00 0.00 0.00 0.00 0.00 0.00 0.00 0.01 0.01 0.04 0.05 0.05 0.09 0.12 0.19 0.32 0.49 0.59 0.58 0.49 0.43 0.42 0.47 0.45 0.46 0.36 0.27 0.20 0.17 0.16
0.01 0.01 0.02 0.01 0.00 0.00 0.00 0.00 0.00 0.00 0.00 0.00 0.00 0.00 0.00 0.00 0.00 0.00 0.00 0.00 0.01 0.02 0.03 0.05 0.07 0.11 0.12 0.12 0.16 0.23 0.31 0.41 0.44 0.42 0.38 0.35 0.36 0.43 0.36 0.28 0.24 0.27 0.21
0.01 0.01 0.01 0.01 0.00 0.00 0.00 0.00 0.00 0.00 0.00 0.00 0.00 0.01 0.01 0.00 0.00 0.00 0.00 0.00 0.01 0.02 0.02 0.04 0.09 0.14 0.15 0.14 0.12 0.15 0.15 0.16 0.19 0.26 0.29 0.28 0.27 0.28 0.22 0.19 0.23 0.34 0.30
0.00 0.01 0.00 0.00 0.00 0.00 0.00 0.00 0.00 0.00 0.01 0.01 0.02 0.04 0.03 0.02 0.02 0.02 0.01 0.01 0.02 0.02 0.02 0.03 0.04 0.06 0.09 0.10 0.12 0.13 0.10 0.09 0.06 0.07 0.09 0.12 0.15 0.17 0.13 0.12 0.20 0.32 0.32
0.00 0.00 0.00 0.00 0.00 0.00 0.00 0.00 0.01 0.02 0.03 0.04 0.04 0.04 0.04 0.05 0.07 0.08 0.06 0.03 0.02 0.03 0.05 0.05 0.03 0.04 0.04 0.04 0.07 0.08 0.07 0.08 0.07 0.05 0.03 0.03 0.05 0.08 0.07 0.06 0.07 0.14 0.20
0.01 0.00 0.00 0.00 0.00 0.00 0.00 0.02 0.03 0.05 0.07 0.07 0.06 0.04 0.04 0.07 0.12 0.15 0.12 0.09 0.07 0.06 0.07 0.07 0.06 0.05 0.06 0.05 0.02 0.02 0.04 0.07 0.07 0.07 0.08 0.05 0.02 0.03 0.04 0.06 0.05 0.03 0.04
0.01 0.01 0.01 0.01 0.01 0.02 0.03 0.04 0.06 0.09 0.08 0.08 0.08 0.07 0.06 0.09 0.16 0.20 0.21 0.25 0.26 0.21 0.18 0.19 0.18 0.17 0.16 0.11 0.03 0.01 0.02 0.04 0.05 0.06 0.07 0.07 0.04 0.02 0.03 0.06 0.07 0.06 0.07
0.01 0.01 0.01 0.01 0.01 0.02 0.03 0.03 0.03 0.04 0.04 0.03 0.04 0.04 0.05 0.07 0.10 0.12 0.18 0.28 0.33 0.31 0.29 0.30 0.29 0.26 0.22 0.16 0.06 0.01 0.01 0.02 0.03 0.03 0.03 0.04 0.03 0.03 0.05 0.08 0.16 0.20 0.20
0.00 0.00 0.00 0.00 0.00 0.00 0.00 0.00 0.00 0.00 0.00 0.00 0.00 0.01 0.01 0.01 0.03 0.05 0.07 0.13 0.16 0.19 0.23 0.24 0.25 0.27 0.25 0.24 0.09 0.03 0.03 0.03 0.04 0.04 0.04 0.06 0.05 0.05 0.06 0.09 0.18 0.16 0.18
0.00 0.00 0.00 0.00 0.00 0.00 0.00 0.00 0.00 0.00 0.00 0.00 0.00 0.00 0.00 0.00 0.00 0.01 0.02 0.05 0.07 0.10 0.13 0.15 0.17 0.20 0.24 0.26 0.17 0.11 0.12 0.10 0.11 0.11 0.10 0.08 0.09 0.04 0.03 0.04 0.07 0.09 0.10
0.00 0.00 0.00 0.00 0.00 0.00 0.00 0.00 0.00 0.00 0.00 0.00 0.00 0.00 0.00 0.00 0.00 0.01 0.01 0.01 0.02 0.04 0.07 0.08 0.10 0.15 0.18 0.21 0.20 0.14 0.14 0.14 0.16 0.20 0.16 0.15 0.14 0.05 0.01 0.01 0.03 0.05 0.06
0.00 0.00 0.00 0.00 0.00 0.00 0.00 0.00 0.00 0.00 0.00 0.00 0.00 0.00 0.00 0.00 0.01 0.01 0.01 0.01 0.02 0.04 0.05 0.08 0.13 0.18 0.23 0.24 0.16 0.11 0.09 0.09 0.15 0.18 0.18 0.18 0.11 0.04 0.02 0.01 0.02 0.03 0.06
0.00 0.00 0.00 0.00 0.00 0.00 0.00 0.00 0.00 0.00 0.00 0.00 0.00 0.00 0.00 0.00 0.01 0.02 0.02 0.03 0.03 0.05 0.08 0.13 0.17 0.21 0.23 0.24 0.20 0.18 0.17 0.13 0.13 0.10 0.08 0.07 0.04 0.03 0.04 0.02 0.02 0.04 0.07
0.00 0.00 0.00 0.00 0.00 0.00 0.00 0.00 0.00 0.00 0.00 0.00 0.00 0.00 0.00 0.00 0.01 0.00 0.01 0.02 0.02 0.03 0.09 0.16 0.20 0.20 0.19 0.14 0.12 0.19 0.26 0.28 0.30 0.27 0.17 0.11 0.07 0.05 0.02 0.02 0.03 0.05 0.07
0.00 0.00 0.00 0.00 0.00 0.00 0.00 0.00 0.00 0.00 0.00 0.00 0.00 0.00 0.00 0.00 0.00 0.00 0.00 0.00 0.01 0.04 0.06 0.06 0.08 0.09 0.08 0.07 0.09 0.11 0.16 0.19 0.22 0.29 0.31 0.28 0.24 0.21 0.14 0.06 0.03 0.02 0.04

GEFSMW_prec_meanprecacc_018.txt.gz
Total_Precipitation_Accumulation
0.02 0.01 0.00 0.00 0.00 0.00 0.00 0.00 0.03 0.10 0.18 0.24 0.27 0.38 0.47 0.48 0.53 0.63 0.52 0.38 0.29 0.31 0.26 0.13 0.09 0.07 0.07 0.13 0.19 0.25 0.32 0.19 0.04 0.03 0.04 0.01 0.00 0.00 0.00 0.00 0.00 0.00 0.00
0.02 0.01 0.00 0.00 0.00 0.00 0.00 0.00 0.01 0.04 0.08 0.12 0.17 0.25 0.36 0.35 0.38 0.49 0.55 0.51 0.38 0.35 0.35 0.29 0.23 0.17 0.15 0.19 0.21 0.28 0.42 0.31 0.11 0.11 0.21 0.12 0.03 0.00 0.00 0.00 0.00 0.00 0.00
0.01 0.00 0.00 0.00 0.00 0.01 0.00 0.01 0.01 0.04 0.08 0.10 0.11 0.12 0.17 0.18 0.25 0.32 0.41 0.48 0.52 0.53 0.54 0.49 0.41 0.32 0.20 0.21 0.24 0.32 0.49 0.38 0.21 0.16 0.21 0.21 0.16 0.04 0.00 0.00 0.00 0.00 0.00
0.01 0.01 0.01 0.01 0.01 0.02 0.02 0.01 0.02 0.04 0.06 0.09 0.11 0.10 0.14 0.21 0.24 0.27 0.27 0.27 0.35 0.46 0.54 0.50 0.47 0.44 0.31 0.31 0.31 0.33 0.45 0.49 0.32 0.21 0.16 0.12 0.10 0.06 0.04 0.01 0.00 0.00 0.00
0.02 0.02 0.02 0.03 0.04 0.05 0.05 0.03 0.04 0.04 0.04 0.07 0.09 0.11 0.13 0.17 0.17 0.14 0.15 0.16 0.20 0.20 0.24 0.30 0.40 0.46 0.46 0.44 0.47 0.45 0.54 0.50 0.41 0.25 0.20 0.20 0.17 0.12 0.07 0.07 0.02 0.00 0.00
0.01 0.02 0.03 0.03 0.05 0.06 0.06 0.04 0.02 0.01 0.02 0.03 0.05 0.07 0.09 0.10 0.09 0.10 0.12 0.14 0.15 0.13 0.12 0.17 0.28 0.45 0.58 0.59 0.57 0.56 0.64 0.59 0.52 0.33 0.21 0.23 0.23 0.21 0.15 0.09 0.07 0.03 0.00
0.03 0.04 0.05 0.06 0.05 0.05 0.03 0.02 0.01 0.00 0.01 0.01 0.03 0.04 0.02 0.02 0.03 0.05 0.06 0.07 0.07 0.08 0.12 0.18 0.29 0.46 0.59 0.65 0.63 0.65 0.64 0.58 0.59 0.43 0.27 0.19 0.18 0.18 0.18 0.17 0.08 0.05 0.02
0.10 0.13 0.12 0.08 0.06 0.04 0.02 0.01 0.00 0.00 0.00 0.00 0.01 0.01 0.01 0.01 0.01 0.02 0.03 0.04 0.06 0.06 0.08 0.15 0.27 0.46 0.66 0.71 0.64 0.59 0.57 0.53 0.57 0.48 0.36 0.35 0.24 0.19 0.18 0.19 0.19 0.17 0.14
0.24 0.30 0.28 0.21 0.13 0.06 0.02 0.00 0.00 0.00 0.00 0.00 0.00 0.00 0.00 0.01 0.00 0.01 0.03 0.06 0.05 0.04 0.05 0.09 0.17 0.29 0.50 0.66 0.67 0.55 0.52 0.47 0.51 0.47 0.41 0.47 0.45 0.33 0.23 0.22 0.22 0.25 0.24
0.53 0.58 0.55 0.39 0.21 0.08 0.03 0.01 0.00 0.00 0.00 0.00 0.00 0.00 0.00 0.00 0.00 0.00 0.01 0.02 0.03 0.03 0.04 0.05 0.09 0.18 0.31 0.49 0.61 0.61 0.56 0.47 0.43 0.49 0.53 0.57 0.60 0.59 0.41 0.29 0.24 0.19 0.23
0.73 0.75 0.65 0.48 0.21 0.07 0.03 0.01 0.01 0.01 0.01 0.01 0.01 0.01 0.00 0.00 0.00 0.00 0.01 0.01 0.02 0.03 0.04 0.06 0.06 0.12 0.20 0.34 0.55 0.66 0.64 0.53 0.48 0.48 0.55 0.63 0.64 0.74 0.65 0.49 0.38 0.30 0.29
0.36 0.39 0.27 0.18 0.13 0.08 0.04 0.02 0.02 0.03 0.04 0.04 0.03 0.01 0.01 0.00 0.00 0.00 0.00 0.00 0.01 0.02 0.04 0.06 0.06 0.10 0.13 0.19 0.32 0.49 0.59 0.58 0.51 0.48 0.52 0.61 0.67 0.78 0.80 0.73 0.59 0.48 0.40
0.10 0.14 0.11 0.07 0.06 0.06 0.04 0.04 0.05 0.08 0.11 0.11 0.07 0.04 0.03 0.02 0.01 0.01 0.00 0.00 0.01 0.02 0.04 0.07 0.10 0.14 0.15 0.13 0.16 0.23 0.32 0.41 0.45 0.44 0.42 0.42 0.50 0.65 0.76 0.76 0.70 0.65 0.50
0.04 0.05 0.06 0.05 0.04 0.03 0.03 0.05 0.07 0.12 0.17 0.21 0.17 0.12 0.06 0.04 0.03 0.03 0.01 0.01 0.01 0.03 0.04 0.07 0.14 0.20 0.19 0.16 0.14 0.15 0.15 0.16 0.19 0.26 0.31 0.32 0.35 0.43 0.49 0.56 0.64 0.74 0.63
0.05 0.05 0.04 0.03 0.03 0.03 0.03 0.04 0.07 0.14 0.23 0.31 0.34 0.25 0.15 0.10 0.08 0.08 0.06 0.04 0.03 0.04 0.05 0.06 0.08 0.12 0.14 0.13 0.16 0.15 0.10 0.09 0.06 0.07 0.10 0.14 0.22 0.30 0.32 0.37 0.49 0.64 0.64
0.11 0.09 0.07 0.06 0.05 0.04 0.04 0.05 0.10 0.20 0.36 0.53 0.48 0.29 0.18 0.15 0.15 0.17 0.16 0.11 0.08 0.08 0.11 0.10 0.08 0.09 0.10 0.10 0.14 0.11 0.08 0.09 0.07 0.05 0.03 0.03 0.07 0.14 0.17 0.21 0.26 0.37 0.45
0.15 0.15 0.15 0.13 0.12 0.12 0.11 0.13 0.19 0.27 0.39 0.45 0.38 0.28 0.20 0.18 0.22 0.26 0.22 0.19 0.16 0.15 0.16 0.16 0.14 0.13 0.17 0.11 0.08 0.09 0.07 0.08 0.08 0.08 0.09 0.07 0.02 0.04 0.06 0.11 0.15 0.14 0.16
0.10 0.10 0.11 0.12 0.14 0.15 0.18 0.21 0.24 0.29 0.32 0.33 0.31 0.25 0.21 0.22 0.26 0.28 0.28 0.32 0.35 0.32 0.30 0.31 0.30 0.27 0.28 0.19 0.09 0.09 0.06 0.06 0.07 0.09 0.10 0.10 0.07 0.05 0.05 0.07 0.09 0.09 0.12
0.04 0.03 0.03 0.03 0.05 0.05 0.06 0.08 0.10 0.11 0.12 0.11 0.11 0.10 0.10 0.12 0.13 0.14 0.20 0.31 0.37 0.38 0.39 0.42 0.41 0.35 0.30 0.23 0.12 0.07 0.05 0.05 0.05 0.06 0.06 0.06 0.06 0.06 0.08 0.12 0.20 0.23 0.24
0.01 0.00 0.00 0.00 0.00 0.00 0.00 0.00 0.00 0.01 0.01 0.01 0.01 0.01 0.01 0.02 0.03 0.05 0.08 0.14 0.18 0.23 0.30 0.32 0.35 0.36 0.33 0.35 0.18 0.12 0.10 0.07 0.09 0.10 0.09 0.10 0.08 0.09 0.11 0.14 0.21 0.19 0.21
0.00 0.00 0.00 0.00 0.00 0.00 0.00 0.00 0.00 0.00 0.00 0.00 0.00 0.00 0.00 0.00 0.00 0.01 0.03 0.05 0.07 0.11 0.15 0.19 0.24 0.31 0.36 0.40 0.31 0.26 0.22 0.17 0.18 0.17 0.15 0.14 0.17 0.11 0.07 0.07 0.10 0.12 0.13
0.00 0.00 0.00 0.00 0.00 0.00 0.00 0.00 0.00 0.00 0.00 0.00 0.00 0.00 0.00 0.00 0.00 0.01 0.01 0.02 0.02 0.05 0.08 0.09 0.13 0.19 0.24 0.30 0.32 0.26 0.24 0.23 0.24 0.25 0.20 0.19 0.21 0.12 0.05 0.04 0.06 0.07 0.08
0.00 0.00 0.00 0.00 0.00 0.00 0.00 0.00 0.00 0.00 0.00 0.00 0.00 0.00 0.00 0.00 0.01 0.01 0.01 0.02 0.02 0.04 0.05 0.08 0.13 0.18 0.24 0.25 0.19 0.15 0.15 0.15 0.21 0.22 0.21 0.22 0.17 0.09 0.04 0.03 0.04 0.05 0.07
0.00 0.00 0.00 0.00 0.00 0.00 0.00 0.00 0.00 0.00 0.00 0.00 0.00 0.00 0.00 0.01 0.01 0.02 0.02 0.03 0.03 0.05 0.08 0.13 0.17 0.21 0.23 0.24 0.21 0.19 0.18 0.16 0.16 0.13 0.10 0.10 0.07 0.05 0.06 0.04 0.03 0.05 0.08
0.00 0.00 0.00 0.00 0.00 0.00 0.00 0.00 0.00 0.00 0.00 0.00 0.00 0.00 0.00 0.01 0.01 0.00 0.01 0.02 0.02 0.03 0.09 0.16 0.20 0.20 0.20 0.14 0.12 0.20 0.29 0.32 0.36 0.34 0.23 0.17 0.12 0.09 0.08 0.06 0.06 0.07 0.09
0.00 0.00 0.00 0.00 0.00 0.00 0.00 0.00 0.00 0.00 0.00 0.00 0.00 0.00 0.00 0.00 0.00 0.00 0.00 0.00 0.01 0.04 0.06 0.06 0.08 0.09 0.09 0.08 0.10 0.13 0.20 0.26 0.31 0.41 0.44 0.41 0.38 0.33 0.25 0.15 0.08 0.05 0.06

GEFSMW_prec_meanprecacc_024.txt.gz
Total_Precipitation_Accumulation
0.04 0.03 0.02 0.01 0.01 0.01 0.00 0.00 0.03 0.10 0.18 0.25 0.28 0.40 0.49 0.51 0.58 0.70 0.64 0.50 0.43 0.48 0.41 0.34 0.35 0.36 0.31 0.29 0.28 0.29 0.34 0.20 0.05 0.04 0.04 0.01 0.00 0.00 0.00 0.00 0.00 0.00 0.00
0.03 0.02 0.02 0.02 0.01 0.00 0.01 0.01 0.03 0.06 0.10 0.16 0.24 0.32 0.42 0.41 0.44 0.57 0.65 0.61 0.49 0.50 0.53 0.51 0.49 0.49 0.49 0.47 0.41 0.41 0.50 0.37 0.16 0.14 0.23 0.12 0.03 0.00 0.00 0.00 0.00 0.00 0.00
0.02 0.01 0.01 0.01 0.01 0.01 0.02 0.03 0.06 0.12 0.18 0.24 0.27 0.22 0.25 0.24 0.30 0.38 0.49 0.58 0.63 0.66 0.66 0.65 0.60 0.56 0.49 0.51 0.55 0.58 0.72 0.57 0.34 0.25 0.27 0.24 0.17 0.04 0.00 0.00 0.00 0.00 0.00
0.01 0.01 0.01 0.02 0.02 0.04 0.06 0.11 0.19 0.29 0.36 0.41 0.35 0.24 0.22 0.28 0.31 0.35 0.35 0.35 0.43 0.55 0.64 0.60 0.59 0.56 0.48 0.54 0.61 0.68 0.84 0.84 0.58 0.39 0.28 0.19 0.13 0.08 0.05 0.01 0.00 0.00 0.00
0.02 0.03 0.04 0.05 0.07 0.12 0.19 0.30 0.45 0.61 0.59 0.48 0.36 0.25 0.23 0.26 0.24 0.20 0.20 0.22 0.28 0.28 0.31 0.38 0.47 0.53 0.54 0.58 0.69 0.75 0.92 0.91 0.78 0.52 0.41 0.36 0.26 0.16 0.09 0.08 0.02 0.00 0.00
0.04 0.06 0.08 0.10 0.14 0.21 0.33 0.45 0.56 0.63 0.57 0.41 0.27 0.20 0.19 0.17 0.15 0.14 0.16 0.18 0.20 0.18 0.17 0.21 0.33 0.49 0.63 0.68 0.71 0.78 0.94 0.96 0.92 0.70 0.50 0.45 0.39 0.31 0.21 0.12 0.08 0.03 0.00
0.09 0.14 0.20 0.26 0.29 0.33 0.38 0.44 0.46 0.47 0.42 0.30 0.20 0.14 0.10 0.08 0.07 0.07 0.07 0.08 0.09 0.10 0.14 0.20 0.32 0.48 0.61 0.68 0.70 0.75 0.80 0.84 0.94 0.83 0.64 0.48 0.37 0.32 0.29 0.25 0.13 0.08 0.03
0.23 0.33 0.41 0.43 0.44 0.41 0.36 0.36 0.35 0.34 0.26 0.18 0.11 0.08 0.06 0.05 0.03 0.03 0.04 0.05 0.06 0.07 0.09 0.16 0.28 0.47 0.67 0.73 0.67 0.64 0.64 0.67 0.79 0.76 0.68 0.64 0.46 0.35 0.29 0.29 0.27 0.22 0.16
0.41 0.55 0.63 0.67 0.64 0.53 0.41 0.30 0.25 0.22 0.16 0.11 0.08 0.06 0.05 0.04 0.02 0.02 0.04 0.06 0.05 0.05 0.05 0.09 0.17 0.30 0.50 0.67 0.69 0.58 0.56 0.53 0.62 0.64 0.63 0.68 0.66 0.50 0.36 0.33 0.32 0.33 0.29
0.71 0.87 1.01 1.01 0.87 0.62 0.46 0.32 0.22 0.17 0.13 0.09 0.07 0.06 0.05 0.04 0.02 0.02 0.02 0.03 0.03 0.04 0.04 0.05 0.09 0.18 0.32 0.49 0.61 0.61 0.57 0.49 0.47 0.58 0.68 0.75 0.78 0.74 0.53 0.41 0.35 0.28 0.29
0.90 1.01 1.04 0.97 0.72 0.49 0.35 0.24 0.19 0.16 0.14 0.12 0.09 0.07 0.05 0.03 0.02 0.01 0.01 0.01 0.02 0.03 0.04 0.06 0.06 0.12 0.20 0.34 0.55 0.66 0.64 0.54 0.50 0.52 0.60 0.70 0.76 0.89 0.78 0.62 0.50 0.41 0.37
0.48 0.55 0.47 0.41 0.37 0.29 0.22 0.16 0.14 0.17 0.18 0.17 0.14 0.08 0.06 0.04 0.02 0.02 0.01 0.01 0.01 0.02 0.04 0.07 0.07 0.10 0.14 0.19 0.32 0.49 0.59 0.58 0.52 0.49 0.53 0.64 0.73 0.86 0.91 0.85 0.72 0.61 0.53
0.19 0.23 0.20 0.17 0.16 0.14 0.12 0.13 0.15 0.20 0.25 0.25 0.22 0.14 0.09 0.06 0.04 0.03 0.01 0.01 0.01 0.03 0.05 0.08 0.10 0.14 0.15 0.14 0.17 0.23 0.32 0.41 0.45 0.44 0.42 0.43 0.52 0.69 0.82 0.86 0.82 0.79 0.68
0.14 0.12 0.12 0.10 0.10 0.09 0.08 0.12 0.16 0.23 0.32 0.42 0.39 0.31 0.19 0.12 0.09 0.07 0.04 0.03 0.02 0.04 0.05 0.08 0.14 0.21 0.20 0.17 0.15 0.16 0.16 0.16 0.19 0.26 0.31 0.32 0.36 0.45 0.52 0.62 0.74 0.88 0.82
0.14 0.13 0.12 0.11 0.10 0.08 0.08 0.09 0.14 0.23 0.37 0.54 0.58 0.48 0.32 0.22 0.17 0.14 0.11 0.07 0.06 0.06 0.07 0.08 0.10 0.14 0.17 0.16 0.19 0.16 0.11 0.09 0.06 0.07 0.10 0.14 0.22 0.31 0.35 0.42 0.57 0.76 0.82
0.18 0.17 0.14 0.12 0.11 0.11 0.10 0.10 0.15 0.27 0.48 0.71 0.69 0.48 0.33 0.26 0.25 0.25 0.23 0.16 0.12 0.12 0.14 0.13 0.10 0.12 0.13 0.14 0.18 0.13 0.09 0.09 0.08 0.05 0.03 0.03 0.07 0.15 0.20 0.26 0.33 0.46 0.59
0.17 0.18 0.19 0.18 0.16 0.17 0.16 0.17 0.22 0.33 0.48 0.57 0.53 0.43 0.32 0.30 0.34 0.36 0.29 0.25 0.21 0.19 0.20 0.20 0.17 0.16 0.21 0.16 0.11 0.12 0.08 0.09 0.09 0.08 0.09 0.07 0.03 0.04 0.06 0.14 0.20 0.21 0.26
0.11 0.11 0.12 0.13 0.15 0.16 0.19 0.22 0.26 0.33 0.37 0.38 0.38 0.32 0.28 0.29 0.32 0.33 0.32 0.36 0.39 0.36 0.34 0.34 0.33 0.29 0.30 0.23 0.12 0.13 0.09 0.08 0.09 0.10 0.10 0.10 0.07 0.05 0.05 0.08 0.09 0.10 0.15
0.04 0.03 0.03 0.03 0.05 0.05 0.06 0.08 0.10 0.12 0.12 0.12 0.12 0.11 0.11 0.13 0.14 0.15 0.21 0.32 0.39 0.40 0.41 0.44 0.43 0.36 0.32 0.27 0.16 0.12 0.08 0.08 0.08 0.08 0.07 0.06 0.06 0.07 0.09 0.13 0.20 0.23 0.25
0.01 0.00 0.00 0.00 0.00 0.00 0.00 0.00 0.00 0.01 0.01 0.01 0.01 0.01 0.01 0.02 0.03 0.05 0.08 0.15 0.18 0.23 0.30 0.32 0.35 0.37 0.35 0.39 0.22 0.16 0.14 0.12 0.12 0.12 0.11 0.13 0.11 0.12 0.13 0.14 0.22 0.19 0.21
0.00 0.00 0.00 0.00 0.00 0.00 0.00 0.00 0.00 0.00 0.00 0.00 0.00 0.00 0.00 0.00 0.00 0.01 0.03 0.05 0.07 0.11 0.15 0.19 0.25 0.31 0.37 0.43 0.35 0.31 0.28 0.24 0.23 0.21 0.18 0.17 0.20 0.13 0.09 0.08 0.11 0.13 0.14
0.00 0.00 0.00 0.00 0.00 0.00 0.00 0.00 0.00 0.00 0.00 0.00 0.00 0.00 0.00 0.00 0.00 0.01 0.01 0.02 0.02 0.05 0.08 0.09 0.13 0.19 0.24 0.30 0.33 0.28 0.28 0.28 0.29 0.30 0.24 0.23 0.24 0.13 0.07 0.05 0.07 0.10 0.10
0.00 0.00 0.00 0.00 0.00 0.00 0.00 0.00 0.00 0.00 0.00 0.00 0.00 0.00 0.00 0.00 0.01 0.01 0.01 0.02 0.02 0.04 0.05 0.08 0.13 0.18 0.24 0.25 0.19 0.16 0.16 0.19 0.25 0.26 0.26 0.25 0.20 0.11 0.06 0.05 0.07 0.07 0.10
0.00 0.00 0.00 0.00 0.00 0.00 0.00 0.00 0.00 0.00 0.00 0.00 0.00 0.00 0.00 0.01 0.01 0.02 0.02 0.03 0.03 0.05 0.08 0.13 0.17 0.21 0.23 0.24 0.21 0.19 0.19 0.16 0.17 0.16 0.15 0.15 0.11 0.08 0.08 0.07 0.06 0.07 0.10
0.00 0.00 0.00 0.00 0.00 0.00 0.00 0.00 0.00 0.00 0.00 0.00 0.00 0.00 0.00 0.01 0.01 0.00 0.01 0.02 0.02 0.04 0.10 0.16 0.20 0.21 0.20 0.14 0.13 0.21 0.30 0.33 0.38 0.38 0.28 0.23 0.17 0.14 0.11 0.10 0.10 0.11 0.13
0.00 0.00 0.00 0.00 0.00 0.00 0.00 0.00 0.00 0.00 0.00 0.00 0.00 0.00 0.00 0.00 0.00 0.00 0.00 0.01 0.02 0.05 0.06 0.06 0.08 0.09 0.09 0.08 0.10 0.15 0.23 0.30 0.36 0.46 0.51 0.49 0.46 0.41 0.32 0.22 0.15 0.10 0.10

GEFSMW_prec_meanprecacc_030.txt.gz
Total_Precipitation_Accumulation
0.05 0.05 0.06 0.06 0.04 0.02 0.01 0.00 0.03 0.11 0.20 0.27 0.31 0.44 0.54 0.56 0.61 0.73 0.67 0.54 0.53 0.66 0.66 0.62 0.59 0.52 0.41 0.38 0.35 0.33 0.37 0.22 0.06 0.06 0.06 0.02 0.01 0.00 0.00 0.00 0.00 0.00 0.00
0.04 0.03 0.03 0.05 0.04 0.02 0.01 0.01 0.03 0.09 0.14 0.22 0.34 0.44 0.53 0.50 0.53 0.65 0.72 0.69 0.62 0.71 0.75 0.81 0.78 0.74 0.70 0.65 0.55 0.52 0.60 0.44 0.19 0.18 0.27 0.15 0.05 0.02 0.01 0.00 0.00 0.00 0.00
0.02 0.01 0.02 0.02 0.04 0.04 0.03 0.04 0.07 0.16 0.29 0.40 0.50 0.47 0.43 0.40 0.45 0.51 0.62 0.70 0.75 0.82 0.84 0.85 0.82 0.77 0.69 0.69 0.72 0.72 0.86 0.70 0.42 0.29 0.31 0.28 0.22 0.07 0.01 0.00 0.00 0.00 0.00
0.01 0.01 0.01 0.02 0.04 0.06 0.08 0.13 0.24 0.40 0.57 0.73 0.76 0.62 0.56 0.56 0.52 0.51 0.50 0.49 0.53 0.64 0.74 0.71 0.71 0.67 0.60 0.67 0.75 0.79 0.95 0.97 0.68 0.46 0.34 0.23 0.18 0.12 0.08 0.03 0.00 0.00 0.00
0.03 0.03 0.04 0.05 0.08 0.14 0.21 0.34 0.54 0.80 0.97 1.03 0.97 0.82 0.66 0.54 0.43 0.35 0.34 0.33 0.35 0.34 0.37 0.44 0.53 0.59 0.60 0.65 0.77 0.81 0.98 0.98 0.87 0.62 0.50 0.44 0.32 0.20 0.13 0.11 0.04 0.01 0.00
0.04 0.07 0.10 0.12 0.17 0.24 0.38 0.54 0.71 0.93 1.00 0.98 0.92 0.82 0.71 0.55 0.41 0.33 0.29 0.26 0.25 0.21 0.20 0.24 0.36 0.53 0.66 0.71 0.75 0.81 0.97 1.00 0.97 0.78 0.59 0.54 0.49 0.42 0.30 0.19 0.12 0.05 0.01
0.10 0.15 0.22 0.31 0.36 0.42 0.49 0.59 0.68 0.81 0.84 0.77 0.74 0.71 0.62 0.49 0.38 0.29 0.21 0.16 0.13 0.14 0.17 0.22 0.34 0.50 0.63 0.70 0.71 0.76 0.81 0.85 0.95 0.87 0.73 0.59 0.49 0.45 0.39 0.34 0.20 0.12 0.05
0.25 0.36 0.46 0.50 0.52 0.53 0.51 0.53 0.58 0.63 0.60 0.55 0.52 0.53 0.49 0.41 0.31 0.21 0.15 0.12 0.11 0.10 0.10 0.17 0.29 0.48 0.68 0.73 0.68 0.64 0.65 0.67 0.80 0.78 0.73 0.72 0.55 0.46 0.42 0.40 0.38 0.31 0.22
0.43 0.60 0.73 0.78 0.76 0.66 0.55 0.47 0.45 0.46 0.42 0.39 0.36 0.36 0.33 0.28 0.22 0.14 0.12 0.12 0.09 0.06 0.06 0.10 0.18 0.30 0.50 0.67 0.69 0.59 0.57 0.54 0.63 0.66 0.66 0.73 0.73 0.58 0.46 0.45 0.44 0.43 0.37
0.74 0.93 1.12 1.16 1.05 0.80 0.64 0.50 0.42 0.38 0.35 0.32 0.29 0.28 0.26 0.22 0.18 0.13 0.11 0.08 0.06 0.05 0.05 0.06 0.09 0.18 0.32 0.49 0.62 0.62 0.58 0.49 0.48 0.59 0.70 0.78 0.82 0.81 0.62 0.51 0.47 0.40 0.38
0.95 1.07 1.14 1.12 0.91 0.70 0.55 0.45 0.37 0.33 0.33 0.33 0.31 0.28 0.24 0.20 0.16 0.13 0.09 0.05 0.04 0.05 0.05 0.07 0.06 0.12 0.20 0.34 0.55 0.66 0.64 0.54 0.50 0.52 0.61 0.73 0.80 0.95 0.86 0.71 0.59 0.51 0.46
0.62 0.66 0.63 0.62 0.59 0.54 0.43 0.36 0.33 0.34 0.35 0.36 0.32 0.25 0.20 0.15 0.12 0.10 0.07 0.04 0.03 0.03 0.04 0.07 0.07 0.10 0.14 0.20 0.32 0.49 0.59 0.59 0.52 0.49 0.53 0.66 0.75 0.90 0.98 0.93 0.81 0.72 0.63
0.43 0.42 0.42 0.40 0.39 0.39 0.32 0.31 0.32 0.37 0.41 0.41 0.36 0.27 0.20 0.15 0.11 0.08 0.05 0.03 0.03 0.04 0.05 0.08 0.11 0.14 0.16 0.14 0.17 0.23 0.32 0.42 0.45 0.44 0.42 0.44 0.53 0.72 0.88 0.94 0.92 0.91 0.79
0.36 0.33 0.32 0.33 0.35 0.30 0.27 0.27 0.29 0.37 0.49 0.58 0.53 0.44 0.30 0.19 0.15 0.11 0.07 0.05 0.04 0.05 0.06 0.09 0.16 0.22 0.22 0.19 0.16 0.17 0.17 0.17 0.20 0.26 0.32 0.33 0.37 0.47 0.57 0.68 0.82 1.01 0.97
0.28 0.27 0.26 0.24 0.21 0.19 0.19 0.21 0.27 0.38 0.55 0.71 0.75 0.63 0.44 0.30 0.23 0.19 0.14 0.10 0.09 0.09 0.10 0.11 0.13 0.18 0.20 0.18 0.21 0.18 0.12 0.10 0.08 0.07 0.10 0.14 0.23 0.32 0.36 0.44 0.62 0.86 0.97
0.24 0.22 0.20 0.18 0.17 0.14 0.13 0.14 0.21 0.35 0.59 0.83 0.81 0.59 0.43 0.33 0.30 0.29 0.27 0.20 0.15 0.15 0.16 0.16 0.16 0.19 0.18 0.20 0.22 0.16 0.11 0.11 0.10 0.07 0.04 0.03 0.07 0.15 0.20 0.26 0.35 0.51 0.67
0.18 0.19 0.19 0.19 0.18 0.18 0.17 0.18 0.24 0.36 0.51 0.61 0.57 0.47 0.36 0.33 0.37 0.39 0.32 0.28 0.25 0.22 0.24 0.24 0.21 0.22 0.27 0.22 0.14 0.15 0.13 0.15 0.15 0.12 0.11 0.08 0.03 0.04 0.07 0.14 0.20 0.22 0.28
0.11 0.11 0.12 0.13 0.15 0.16 0.19 0.22 0.26 0.33 0.37 0.39 0.39 0.33 0.29 0.30 0.32 0.34 0.32 0.38 0.41 0.37 0.36 0.36 0.35 0.32 0.34 0.26 0.15 0.16 0.16 0.19 0.19 0.17 0.14 0.13 0.08 0.05 0.06 0.08 0.10 0.11 0.16
0.04 0.03 0.03 0.03 0.05 0.05 0.06 0.08 0.10 0.12 0.12 0.12 0.12 0.11 0.11 0.13 0.14 0.15 0.21 0.32 0.39 0.40 0.42 0.44 0.43 0.37 0.33 0.28 0.18 0.16 0.17 0.19 0.21 0.17 0.12 0.11 0.09 0.10 0.11 0.13 0.21 0.24 0.26
0.01 0.00 0.00 0.00 0.00 0.00 0.00 0.00 0.00 0.01 0.01 0.01 0.01 0.01 0.01 0.02 0.03 0.05 0.08 0.15 0.18 0.23 0.30 0.32 0.35 0.38 0.36 0.39 0.23 0.19 0.20 0.21 0.23 0.19 0.17 0.20 0.17 0.16 0.15 0.15 0.23 0.22 0.23
0.00 0.00 0.00 0.00 0.00 0.00 0.00 0.00 0.00 0.00 0.00 0.00 0.00 0.00 0.00 0.00 0.00 0.01 0.03 0.05 0.07 0.11 0.15 0.19 0.25 0.31 0.37 0.43 0.36 0.32 0.31 0.28 0.30 0.28 0.23 0.21 0.26 0.17 0.12 0.11 0.12 0.15 0.16
0.00 0.00 0.00 0.00 0.00 0.00 0.00 0.00 0.00 0.00 0.00 0.00 0.00 0.00 0.00 0.00 0.00 0.01 0.01 0.02 0.02 0.05 0.08 0.09 0.13 0.19 0.24 0.30 0.33 0.29 0.29 0.30 0.32 0.34 0.27 0.26 0.29 0.16 0.10 0.07 0.09 0.12 0.12
0.00 0.00 0.00 0.00 0.00 0.00 0.00 0.00 0.00 0.00 0.00 0.00 0.00 0.00 0.00 0.00 0.01 0.01 0.01 0.02 0.02 0.04 0.05 0.08 0.13 0.18 0.24 0.25 0.19 0.16 0.17 0.19 0.27 0.29 0.30 0.30 0.23 0.14 0.09 0.08 0.10 0.10 0.11
0.00 0.00 0.00 0.00 0.00 0.00 0.00 0.00 0.00 0.00 0.00 0.00 0.00 0.00 0.00 0.01 0.01 0.02 0.02 0.03 0.03 0.05 0.08 0.13 0.17 0.21 0.23 0.24 0.21 0.20 0.19 0.17 0.19 0.19 0.18 0.19 0.14 0.12 0.11 0.09 0.08 0.08 0.12
0.00 0.00 0.00 0.00 0.00 0.00 0.00 0.00 0.00 0.00 0.00 0.00 0.00 0.00 0.00 0.01 0.01 0.01 0.01 0.02 0.02 0.04 0.10 0.16 0.20 0.21 0.20 0.14 0.13 0.21 0.30 0.34 0.39 0.40 0.31 0.27 0.22 0.18 0.14 0.12 0.11 0.12 0.15
0.00 0.00 0.00 0.00 0.00 0.00 0.00 0.00 0.00 0.00 0.00 0.00 0.00 0.00 0.00 0.00 0.00 0.00 0.00 0.01 0.02 0.05 0.06 0.06 0.08 0.10 0.09 0.08 0.10 0.15 0.24 0.31 0.38 0.49 0.53 0.51 0.48 0.44 0.36 0.25 0.18 0.13 0.13